User: anonymous   Login
Location: Ash Shall?l al Awwal
(24.0167°N, 32.8667°E)
Time: 22:06:51
(UTC+00:00)
Language:

TSX-5 - Orbit

View from above orbital plane
View from above orbital plane
View from above satellite
View from above satellite

Ground track
Ground track

The orbit data is extracted from the following two-line orbital elements,

1 26374U 00030A   21127.67261914  .00001075  00000-0  96308-4 0  9997
2 26374  68.9259 118.4210 0632331  96.4018 270.9444 14.09134983 55918
Epoch (UTC): 07 May 2021 16:08:34
Eccentricity: 0.0632331
inclination: 68.9259°
perigee height: 404 km
apogee height: 1320 km
right ascension of ascending node: 118.4210°
argument of perigee: 96.4018°
revolutions per day: 14.09134983
mean anomaly at epoch: 270.9444°
orbit number at epoch: 5591

The dashed part of the orbit path shows where the satellite is in the earth's shadow,  

DLR